PSLV R/B, 40720

Orbit data source: Space-Track

PSLV R/B, 40720 is space debris in SSO originally from a launch on Fri, 10 Jul 2015 UTC launched from the Sirharikota (SRI). Debris objects in space refer to the collection of defunct objects orbiting the Earth. Examples of debris include non-operational satellites, rocket bodies, and fragments generated from explosions, collisions, or faulty payload assembly.

Loading next visibility...
Identifier
40720, 2015-032F
Orbit
SSO
Country
Flag of ININ / IND
Related business
Manufacturer
VSSC/LPSC
Mission
Spacecraft
Bus & Motor
PS-4, Unknown motor
Mass
920 kg wet, 920 kg dry
Launch date (UTC)
2015-07-10 (11 years ago)
Launch vehicle
Unknown
Launch site
Sirharikota (SRI)
Object type
Payload
Rocket body
Debris
Shape & HBR
Cyl + Cyl + 2 Nozzle, 1.6 m
Radar Cross Section
3.727 m², Large (>1 m²)

Expand to show TLE details & history
Last TLE update: 9 hours ago

TLE from 9 hours ago
0 PSLV R/B
1 40720U 15032F   26036.90364616  .00002277  00000-0  26506-3 0  9996
2 40720  98.1765   3.1646 0005178 143.8266 216.3300 14.86315128571795
Epoch: 2026-02-05T21:41Z
TLE epoch observation values (Epoch: 2026-02-05T21:41:15.028Z)
Latitude
0.00003°
Longitude
-98.19721°
Altitude
615.399 km
Speed
7.55 km/s
True Right ascension
00h 12m 39s
True Declination
0° 00' 00"
Sunlit
Object was in daylight at epoch
Visualization orbit readout
Latitude
Unknown
Longitude
Unknown
Altitude
Unknown
Speed
Unknown
Apparent Right ascension
Unknown
Apparent Declination
Unknown
Sunlit
N/A
Visualization observer readout
Local Sidereal Time
09:05:04
Azimuth
Unknown
Elevation
Unknown
Doppler factor
Unknown
Orbital elements
Apogee altitude
610.123 km
Perigee altitude
602.889 km
Semi-major axis
6,984.643 km
Eccentricity
0.00052
Inclination
98.1765°
RAAN
3.1646°
Arg. of periapsis
143.8266°
True anomaly
216.29487°
Mean anomaly
216.33°
Eccentric anomaly
216.31243°
Mean motion
3.71815 °/min
Orbital period
96.82 mins
BSTAR
0.00026506
Loading maneuver chart data...
Computing Atmospheric mass density...
Loading historical data...
Loading historical data...
Loading historical data...
Loading historical data...
Loading historical data...
Loading historical data...
Loading historical data...
Other satellites on launch #32 in the year 2015 (2015-07-10 UTC)

Documentation

Showing up to 5 results
|